Regional Weather Roundup
Issued by NWS Goodland, KS

Home | Current Version | Previous Version | Text Only | Print | Product List | Glossary On
Versions: 1 2 3 4 5 6 7 8 9 10 11 12 13 14 15 16 17 18 19 20 21 22 23 24 25 26 27 28 29 30 31 32 33 34 35 36 37 38 39 40 41 42 43 44 45 46 47 48 49 50
000
ASUS43 KGLD 281608
RWRGLD

GOODLAND FORECAST AREA HOURLY WEATHER ROUNDUP
NATIONAL WEATHER SERVICE GOODLAND KS
900 AM MST TUE FEB 28 2017

...OFFICIAL OBSERVATIONS...

CITY           SKY/WX    TMP DP  RH WIND       PRES   REMARKS
GOODLAND KS    CLOUDY    36  19  50 N17       29.72S
HILL CITY KS   PTSUNNY   44  29  55 N12       29.73R
IMPERIAL NEB   CLOUDY    35  16  45 N24G30    29.72F
MCCOOK NEB     CLOUDY    40  24  53 N13       29.70F
AKRON CO       CLOUDY    30  14  51 N15       29.70F WCI  19
BURLINGTON CO  CLOUDY    36  13  38 N18       29.72R
LIMON CO       CLOUDY   N/A N/A N/A N9        29.70S
$$

...UNOFFICIAL OBSERVATIONS...

CITY           SKY/WX    TMP DP  RH WIND       PRES   REMARKS
LENORA KS        N/A     41  32  70 N9          N/A
NORTON KS      SUNNY     43  27  52 NW16      29.72
SHARON SPRINGS   N/A     42  18  37 NE17        N/A
TRENTON NEB      N/A     38  32  79 N15         N/A
KIT CARSON CO    N/A     34  15  44 MISG        N/A
YUMA CO        FAIR      32  18  55 N16       29.70F
$$



USA.gov is the U.S. government's official web portal to all federal, state and local government web resources and services.